Location: Ariel
(45.9570°N, 122.5700°W)
Time: 12:47:26
(UTC-07:00)

Altair - Pass Details

Date: 20 July 2019
Orbit: 1501 x 1683 km, 47.2° (Epoch: 24 August)

Event Time Altitude Azimuth Distance (km) Brightness Sun altitude
Rises 11:42:07 0° 200° (SSW) 4,653 10.2 58.1°
Reaches altitude 10° 11:45:38 10° 190° (S) 3,659 9.9 58.5°
Maximum altitude 11:53:10 30° 134° (SE) 2,442 9.8 59.4°
Drops below altitude 10° 12:00:42 10° 78° (ENE) 3,662 9.8 60.3°
Sets 12:04:12 0° 68° (ENE) 4,658 10.1 60.6°
